| time (UTC) | temp C | wind direction | speed KPH | gust KPH | rain 1hr cm | rain 24hr cm | rain mn cm | humidity % | barometer mb |
| 20260507082024 | 21 | 300 | 9.7 | 20.9 | 0.00 | 0.18 | 0.13 | 57 | 1013.4 |
| 20260507081019 | 21 | 249 | 8.0 | 16.1 | 0.00 | 0.18 | 0.13 | 56 | 1013.4 |
| 20260507080016 | 21 | 232 | 3.2 | 4.8 | 0.00 | 0.18 | 0.13 | 59 | 1013.3 |
| 20260507075033 | 20 | 214 | 1.6 | 4.8 | 0.00 | 0.18 | 0.13 | 61 | 1013.4 |
| 20260507074042 | 21 | 256 | 3.2 | 9.7 | 0.00 | 0.18 | 0.13 | 60 | 1013.4 |
| 20260507073027 | 21 | 201 | 4.8 | 9.7 | 0.00 | 0.18 | 0.13 | 59 | 1013.4 |
| 20260507072024 | 20 | 211 | 4.8 | 6.4 | 0.00 | 0.18 | 0.13 | 62 | 1013.4 |
| 20260507071022 | 20 | 245 | 3.2 | 6.4 | 0.00 | 0.18 | 0.13 | 65 | 1013.3 |
| 20260507070019 | 20 | 214 | 3.2 | 6.4 | 0.00 | 0.18 | 0.13 | 68 | 1013.3 |
| 20260507065016 | 19 | 225 | 6.4 | 11.3 | 0.00 | 0.18 | 0.13 | 69 | 1013.2 |
| 20260507064038 | 18 | 227 | 1.6 | 3.2 | 0.00 | 0.20 | 0.13 | 79 | 1013.2 |
| 20260507063030 | 17 | 259 | 3.2 | 4.8 | 0.00 | 0.20 | 0.13 | 83 | 1013.1 |
| 20260507062027 | 17 | 289 | 4.8 | 6.4 | 0.00 | 0.20 | 0.13 | 82 | 1013.0 |
| 20260507061024 | 17 | 250 | 3.2 | 4.8 | 0.00 | 0.28 | 0.13 | 86 | 1013.1 |
| 20260507060023 | 16 | 261 | 1.6 | 3.2 | 0.00 | 0.33 | 0.13 | 88 | 1013.0 |
| 20260507055018 | 16 | 257 | 3.2 | 4.8 | 0.00 | 0.33 | 0.13 | 90 | 1013.2 |
| 20260507054036 | 16 | 275 | 3.2 | 3.2 | 0.00 | 0.33 | 0.13 | 89 | 1013.1 |
| 20260507053032 | 16 | 254 | 1.6 | 3.2 | 0.00 | 0.33 | 0.13 | 89 | 1013.0 |
| 20260507052029 | 15 | 222 | 0.0 | 1.6 | 0.00 | 0.33 | 0.13 | 90 | 1013.0 |
| 20260507051026 | 15 | 224 | 0.0 | 1.6 | 0.00 | 0.36 | 0.13 | 91 | 1012.9 |
| 20260507050104 | 15 | 230 | 1.6 | 3.2 | 0.00 | 0.36 | 0.13 | 92 | 1012.8 |
| 20260507045020 | 15 | 235 | 0.0 | 1.6 | 0.00 | 0.36 | 0.13 | 92 | 1012.7 |
| 20260507044018 | 15 | 235 | 0.0 | 1.6 | 0.00 | 0.36 | 0.13 | 92 | 1012.5 |
| 20260507043035 | 15 | 235 | 0.0 | 1.6 | 0.00 | 0.36 | 0.13 | 92 | 1012.4 |
| 20260507042032 | 15 | 0.0 | 0.0 | 0.00 | 0.36 | 0.13 | 91 | 1012.4 | |
| 20260507041049 | 15 | 235 | 0.0 | 0.0 | 0.03 | 0.36 | 0.13 | 91 | 1012.3 |
| 20260507040028 | 15 | 173 | 1.6 | 3.2 | 0.05 | 0.36 | 0.13 | 91 | 1012.2 |
| 20260507035023 | 15 | 143 | 1.6 | 4.8 | 0.08 | 0.36 | 0.13 | 90 | 1012.0 |
| 20260507034020 | 15 | 137 | 3.2 | 6.4 | 0.08 | 0.36 | 0.13 | 90 | 1012.0 |
| 20260507033017 | 15 | 136 | 3.2 | 4.8 | 0.08 | 0.36 | 0.13 | 89 | 1012.0 |
| 20260507032034 | 15 | 149 | 0.0 | 1.6 | 0.10 | 0.36 | 0.13 | 89 | 1012.1 |
| 20260507031032 | 16 | 138 | 3.2 | 3.2 | 0.08 | 0.33 | 0.10 | 87 | 1012.1 |
| 20260507030029 | 16 | 199 | 3.2 | 3.2 | 0.05 | 0.30 | 0.08 | 83 | 1012.0 |
| 20260507025026 | 16 | 181 | 3.2 | 4.8 | 0.05 | 0.28 | 0.05 | 85 | 1012.1 |
| 20260507024023 | 16 | 183 | 1.6 | 1.6 | 0.05 | 0.28 | 0.05 | 83 | 1011.9 |
| 20260507023041 | 16 | 255 | 1.6 | 3.2 | 0.05 | 0.28 | 0.05 | 81 | 1011.7 |
| 20260507022037 | 17 | 306 | 1.6 | 3.2 | 0.03 | 0.25 | 0.03 | 77 | 1011.4 |
| 20260507021034 | 17 | 309 | 3.2 | 4.8 | 0.03 | 0.25 | 0.03 | 77 | 1011.5 |
| 20260507020051 | 17 | 266 | 1.6 | 3.2 | 0.03 | 0.25 | 0.03 | 76 | 1011.7 |
| 20260507015050 | 16 | 244 | 1.6 | 3.2 | 0.00 | 0.23 | 0.00 | 78 | 1011.7 |
| 20260507014025 | 17 | 258 | 1.6 | 3.2 | 0.00 | 0.23 | 0.00 | 75 | 1011.7 |
| 20260507013023 | 17 | 276 | 3.2 | 6.4 | 0.00 | 0.23 | 0.00 | 76 | 1011.7 |
| 20260507012020 | 16 | 281 | 1.6 | 3.2 | 0.00 | 0.23 | 0.00 | 76 | 1011.5 |
| 20260507011017 | 17 | 282 | 1.6 | 3.2 | 0.00 | 0.23 | 0.00 | 76 | 1011.6 |
| 20260507010034 | 16 | 229 | 3.2 | 3.2 | 0.00 | 0.23 | 0.00 | 76 | 1011.5 |
| 20260507005031 | 16 | 123 | 0.0 | 1.6 | 0.00 | 0.23 | 0.00 | 77 | 1011.6 |
| 20260507004028 | 16 | 123 | 1.6 | 3.2 | 0.00 | 0.23 | 0.00 | 76 | 1011.5 |
| 20260507003027 | 17 | 150 | 3.2 | 3.2 | 0.00 | 0.23 | 0.00 | 74 | 1011.5 |
| 20260507002022 | 17 | 253 | 1.6 | 3.2 | 0.00 | 0.23 | 0.00 | 70 | 1011.7 |
| 20260507001019 | 17 | 225 | 1.6 | 4.8 | 0.00 | 0.23 | 0.00 | 69 | 1011.6 |
| 20260507000017 | 18 | 174 | 3.2 | 3.2 | 0.00 | 0.23 | 0.00 | 68 | 1011.7 |
| 20260506235034 | 18 | 104 | 1.6 | 3.2 | 0.00 | 0.23 | 0.00 | 68 | 1011.8 |
| 20260506234036 | 18 | 7 | 3.2 | 4.8 | 0.00 | 0.23 | 0.00 | 67 | 1011.7 |
| 20260506233028 | 18 | 274 | 1.6 | 3.2 | 0.00 | 0.23 | 0.00 | 67 | 1011.8 |
| 20260506232025 | 18 | 193 | 1.6 | 3.2 | 0.00 | 0.23 | 0.00 | 66 | 1011.6 |
| 20260506231022 | 18 | 222 | 1.6 | 4.8 | 0.00 | 0.23 | 0.00 | 65 | 1011.7 |
| 20260506230019 | 18 | 211 | 1.6 | 3.2 | 0.00 | 0.23 | 0.00 | 65 | 1011.7 |
| 20260506225016 | 18 | 347 | 3.2 | 4.8 | 0.00 | 0.23 | 0.00 | 64 | 1011.8 |
| 20260506224038 | 18 | 2 | 4.8 | 6.4 | 0.00 | 0.23 | 0.00 | 64 | 1011.8 |
| 20260506223051 | 18 | 206 | 1.6 | 6.4 | 0.00 | 0.23 | 0.00 | 64 | 1011.9 |
| 20260506222028 | 18 | 172 | 3.2 | 6.4 | 0.00 | 0.23 | 0.00 | 66 | 1011.8 |
| 20260506221025 | 18 | 205 | 1.6 | 4.8 | 0.00 | 0.23 | 0.00 | 66 | 1011.8 |
| 20260506220022 | 18 | 248 | 3.2 | 11.3 | 0.00 | 0.23 | 0.23 | 65 | 1011.7 |
| 20260506215019 | 18 | 260 | 3.2 | 9.7 | 0.00 | 0.23 | 0.23 | 64 | 1011.7 |
| 20260506214032 | 18 | 282 | 1.6 | 6.4 | 0.00 | 0.23 | 0.23 | 63 | 1011.6 |
| 20260506213054 | 18 | 262 | 1.6 | 3.2 | 0.00 | 0.23 | 0.23 | 63 | 1011.6 |
| 20260506212031 | 18 | 242 | 1.6 | 3.2 | 0.00 | 0.23 | 0.23 | 63 | 1011.8 |
| 20260506211028 | 18 | 263 | 4.8 | 9.7 | 0.00 | 0.23 | 0.23 | 61 | 1011.8 |
| 20260506210027 | 18 | 243 | 1.6 | 4.8 | 0.00 | 0.23 | 0.23 | 63 | 1011.9 |
| 20260506205022 | 18 | 226 | 3.2 | 6.4 | 0.00 | 0.23 | 0.23 | 62 | 1011.9 |
| 20260506204021 | 19 | 231 | 4.8 | 11.3 | 0.00 | 0.23 | 0.23 | 61 | 1011.7 |
| 20260506203017 | 19 | 243 | 6.4 | 9.7 | 0.00 | 0.23 | 0.23 | 59 | 1011.8 |
| 20260506202034 | 18 | 189 | 11.3 | 17.7 | 0.00 | 0.23 | 0.23 | 61 | 1011.7 |
| 20260506201031 | 18 | 208 | 4.8 | 14.5 | 0.00 | 0.23 | 0.23 | 69 | 1011.7 |
| 20260506200028 | 18 | 132 | 1.6 | 3.2 | 0.00 | 0.23 | 0.23 | 74 | 1011.7 |
| 20260506195025 | 18 | 124 | 1.6 | 3.2 | 0.00 | 0.23 | 0.23 | 70 | 1011.6 |
| 20260506194102 | 18 | 216 | 1.6 | 6.4 | 0.00 | 0.23 | 0.23 | 69 | 1011.6 |
| 20260506193019 | 18 | 202 | 3.2 | 4.8 | 0.00 | 0.23 | 0.23 | 70 | 1011.3 |
| 20260506192016 | 18 | 179 | 1.6 | 3.2 | 0.00 | 0.23 | 0.23 | 71 | 1011.3 |
| 20260506191114 | 18 | 143 | 1.6 | 3.2 | 0.00 | 0.23 | 0.23 | 72 | 1011.2 |
| 20260506190030 | 18 | 104 | 3.2 | 4.8 | 0.00 | 0.23 | 0.23 | 70 | 1011.0 |
| 20260506185027 | 18 | 118 | 1.6 | 1.6 | 0.00 | 0.23 | 0.23 | 72 | 1010.9 |
| 20260506184024 | 18 | 223 | 3.2 | 4.8 | 0.00 | 0.23 | 0.23 | 73 | 1010.8 |
| 20260506183041 | 18 | 230 | 1.6 | 4.8 | 0.00 | 0.23 | 0.23 | 73 | 1010.6 |
| 20260506182018 | 18 | 265 | 3.2 | 6.4 | 0.00 | 0.23 | 0.23 | 69 | 1010.7 |
| 20260506181035 | 18 | 240 | 1.6 | 3.2 | 0.00 | 0.23 | 0.23 | 70 | 1010.8 |
| 20260506180031 | 18 | 177 | 3.2 | 4.8 | 0.00 | 0.23 | 0.23 | 71 | 1010.8 |
| 20260506175030 | 18 | 160 | 4.8 | 6.4 | 0.00 | 0.23 | 0.23 | 72 | 1010.6 |
| 20260506174042 | 18 | 189 | 4.8 | 6.4 | 0.00 | 0.23 | 0.23 | 72 | 1010.6 |
| 20260506173022 | 18 | 190 | 6.4 | 11.3 | 0.03 | 0.23 | 0.23 | 72 | 1010.6 |
| 20260506172019 | 18 | 187 | 4.8 | 9.7 | 0.05 | 0.23 | 0.23 | 73 | 1010.5 |
| 20260506171017 | 18 | 174 | 4.8 | 9.7 | 0.05 | 0.23 | 0.23 | 74 | 1010.5 |
| 20260506170033 | 18 | 170 | 6.4 | 9.7 | 0.05 | 0.23 | 0.23 | 74 | 1010.5 |
| 20260506165030 | 18 | 180 | 3.2 | 4.8 | 0.05 | 0.23 | 0.23 | 76 | 1010.6 |
| 20260506164027 | 19 | 273 | 4.8 | 14.5 | 0.05 | 0.23 | 0.23 | 71 | 1010.7 |
| 20260506163024 | 21 | 184 | 8.0 | 14.5 | 0.03 | 0.20 | 0.20 | 62 | 1010.6 |
| 20260506162021 | 22 | 173 | 4.8 | 8.0 | 0.00 | 0.18 | 0.18 | 53 | 1010.4 |
| 20260506161018 | 22 | 216 | 1.6 | 4.8 | 0.00 | 0.18 | 0.18 | 52 | 1010.3 |
| 20260506160035 | 22 | 265 | 3.2 | 6.4 | 0.00 | 0.18 | 0.18 | 51 | 1010.4 |
| 20260506155052 | 21 | 239 | 4.8 | 11.3 | 0.00 | 0.18 | 0.18 | 58 | 1010.3 |
| 20260506154029 | 20 | 99 | 1.6 | 6.4 | 0.00 | 0.18 | 0.18 | 73 | 1010.3 |
| 20260506153025 | 20 | 95 | 8.0 | 14.5 | 0.00 | 0.18 | 0.18 | 74 | 1010.2 |
| 20260506152022 | 21 | 102 | 3.2 | 6.4 | 0.00 | 0.18 | 0.18 | 71 | 1010.3 |
| 20260506151021 | 20 | 94 | 3.2 | 11.3 | 0.00 | 0.18 | 0.18 | 72 | 1010.3 |
| 20260506150016 | 20 | 89 | 4.8 | 12.9 | 0.00 | 0.18 | 0.18 | 75 | 1010.1 |
| 20260506145053 | 20 | 101 | 6.4 | 14.5 | 0.00 | 0.18 | 0.18 | 76 | 1010.2 |
| 20260506144030 | 21 | 109 | 9.7 | 22.5 | 0.00 | 0.18 | 0.18 | 70 | 1010.2 |
| 20260506143047 | 20 | 130 | 4.8 | 12.9 | 0.00 | 0.18 | 0.18 | 70 | 1010.1 |
| 20260506142045 | 20 | 126 | 4.8 | 14.5 | 0.00 | 0.18 | 0.18 | 73 | 1010.1 |
| 20260506141021 | 20 | 105 | 6.4 | 14.5 | 0.00 | 0.18 | 0.18 | 72 | 1010.2 |
| 20260506140018 | 20 | 112 | 6.4 | 16.1 | 0.00 | 0.18 | 0.18 | 71 | 1010.4 |
| 20260506135035 | 21 | 91 | 6.4 | 12.9 | 0.00 | 0.18 | 0.18 | 70 | 1010.5 |
| 20260506134032 | 21 | 83 | 4.8 | 9.7 | 0.00 | 0.18 | 0.18 | 70 | 1010.5 |
| 20260506133110 | 20 | 99 | 6.4 | 11.3 | 0.00 | 0.18 | 0.18 | 72 | 1010.7 |
| 20260506132026 | 21 | 94 | 6.4 | 12.9 | 0.00 | 0.18 | 0.18 | 71 | 1010.7 |
| 20260506131023 | 21 | 100 | 11.3 | 22.5 | 0.00 | 0.18 | 0.18 | 71 | 1010.8 |
| 20260506130020 | 21 | 107 | 4.8 | 11.3 | 0.00 | 0.18 | 0.18 | 70 | 1010.9 |
| 20260506125016 | 20 | 102 | 6.4 | 17.7 | 0.00 | 0.18 | 0.18 | 74 | 1010.9 |
| 20260506124033 | 19 | 139 | 3.2 | 9.7 | 0.00 | 0.18 | 0.18 | 75 | 1011.2 |
| 20260506123031 | 20 | 112 | 12.9 | 22.5 | 0.00 | 0.18 | 0.18 | 73 | 1010.9 |
| 20260506122027 | 20 | 93 | 12.9 | 22.5 | 0.00 | 0.18 | 0.18 | 72 | 1011.0 |
| 20260506121024 | 19 | 117 | 6.4 | 14.5 | 0.00 | 0.18 | 0.18 | 73 | 1010.9 |
| 20260506120022 | 19 | 104 | 8.0 | 17.7 | 0.00 | 0.18 | 0.18 | 72 | 1010.9 |
| 20260506115018 | 20 | 104 | 9.7 | 20.9 | 0.00 | 0.18 | 0.18 | 70 | 1010.8 |
| 20260506114035 | 20 | 94 | 8.0 | 20.9 | 0.00 | 0.18 | 0.18 | 70 | 1011.0 |
| 20260506113033 | 20 | 108 | 9.7 | 17.7 | 0.00 | 0.18 | 0.18 | 70 | 1010.9 |
| 20260506112028 | 20 | 112 | 6.4 | 16.1 | 0.00 | 0.18 | 0.18 | 74 | 1010.9 |
| 20260506111025 | 19 | 94 | 9.7 | 24.1 | 0.00 | 0.18 | 0.18 | 78 | 1011.0 |
| 20260506110022 | 20 | 93 | 12.9 | 25.7 | 0.00 | 0.18 | 0.18 | 77 | 1010.9 |
| 20260506105019 | 20 | 102 | 11.3 | 24.1 | 0.00 | 0.18 | 0.18 | 77 | 1011.1 |
| 20260506104016 | 20 | 103 | 11.3 | 20.9 | 0.00 | 0.18 | 0.18 | 76 | 1011.1 |
| 20260506103053 | 20 | 114 | 11.3 | 27.4 | 0.00 | 0.18 | 0.18 | 69 | 1011.3 |
| 20260506102029 | 20 | 122 | 9.7 | 20.9 | 0.00 | 0.18 | 0.18 | 69 | 1011.4 |
| 20260506101026 | 19 | 114 | 14.5 | 27.4 | 0.00 | 0.18 | 0.18 | 72 | 1011.4 |
| 20260506100023 | 19 | 106 | 9.7 | 24.1 | 0.00 | 0.18 | 0.18 | 75 | 1011.5 |
| 20260506095020 | 18 | 102 | 8.0 | 16.1 | 0.00 | 0.18 | 0.18 | 76 | 1011.7 |
| 20260506094042 | 19 | 103 | 9.7 | 16.1 | 0.00 | 0.18 | 0.18 | 73 | 1011.7 |
| 20260506093034 | 19 | 101 | 9.7 | 16.1 | 0.00 | 0.18 | 0.18 | 71 | 1011.7 |
| 20260506092031 | 20 | 129 | 6.4 | 14.5 | 0.00 | 0.18 | 0.18 | 64 | 1011.6 |
| 20260506091027 | 20 | 148 | 6.4 | 11.3 | 0.00 | 0.18 | 0.18 | 63 | 1011.6 |
| 20260506090024 | 20 | 160 | 4.8 | 11.3 | 0.00 | 0.18 | 0.18 | 62 | 1011.4 |
| 20260506085043 | 20 | 132 | 3.2 | 9.7 | 0.00 | 0.18 | 0.18 | 56 | 1011.4 |
| 20260506084023 | 20 | 125 | 4.8 | 12.9 | 0.00 | 0.18 | 0.18 | 58 | 1011.4 |
| 20260506083035 | 20 | 131 | 4.8 | 12.9 | 0.00 | 0.18 | 0.18 | 62 | 1011.6 |